STARLINK-1477, 45754

Orbit data source: Space-Track

STARLINK-1477, 45754 is a payload satellite owned by SpaceX/Seattle (US) in LEO that was launched on Sat, 13 Jun 2020 UTC via an FALCON 9 launch vehicle from the Air Force Eastern Test Range (AFETR). Payload-class satellites include a variety of spacecraft equipped with specific instruments for various scientific and technological missions. These include communications satellites like Starlink; space stations such as the ISS; scientific satellites like the Hubble; Earth observation satellites from companies like Planet Labs, Umbra, and HawkEye 360; GPS; miniature CubeSats for education and research; and military/defense satellites.

Loading next visibility...
Identifier
45754, 2020-038AA
Orbit
LEO
Country
Flag of USUS
Related business
Manufacturer
SpaceX/Seattle
Mission
Partially operational Commercial Communications
Bus & Motor
STARLINK, Unknown motor
Mass
260 kg wet, ~248 kg dry
Launch date (UTC)
2020-06-13 (6 years ago)
Launch vehicle
FALCON 9
Launch site
Air Force Eastern Test Range (AFETR)
Object type
Payload
Rocket body
Debris
Shape & HBR
Box + 1 Pan, 10.1 m
Radar Cross Section
13.562 m², Large (>1 m²)

Expand to show TLE details & history
Last TLE update: 1 day ago

TLE from 1 day ago
0 STARLINK-1477
1 45754U 20038AA  26033.23302120  .00038559  00000-0  22162-2 0  9990
2 45754  53.0530  13.8463 0000534 355.6579   4.4408 15.12146625311165
Epoch: 2026-02-02T05:35Z
TLE epoch observation values (Epoch: 2026-02-02T05:35:33.031Z)
Latitude
-0.00001°
Longitude
157.52741°
Altitude
530.168 km
Speed
7.599 km/s
True Right ascension
00h 55m 23s
True Declination
0° 00' 00"
Sunlit
Object was in daylight at epoch
Visualization orbit readout
Latitude
Unknown
Longitude
Unknown
Altitude
Unknown
Speed
Unknown
Apparent Right ascension
Unknown
Apparent Declination
Unknown
Sunlit
N/A
Visualization observer readout
Local Sidereal Time
08:59:21
Azimuth
Unknown
Elevation
Unknown
Doppler factor
Unknown
Orbital elements
Apogee altitude
530.295 km
Perigee altitude
529.558 km
Semi-major axis
6,908.063 km
Eccentricity
0.00005
Inclination
53.053°
RAAN
13.8463°
Arg. of periapsis
355.6579°
True anomaly
4.44127°
Mean anomaly
4.4408°
Eccentric anomaly
4.44104°
Mean motion
3.78015 °/min
Orbital period
95.23 mins
BSTAR
0.0022162
Loading maneuver chart data...
Computing Atmospheric mass density...

Documentation

Showing up to 5 results
|